Flag for U.S.A. Weather past 2 weeks in Sacramento, California, U.S.A.

Now
86 °F

Clear.


Feels Like: 84 °F
Forecast: 71 / 104 °F
Wind: 3 mph from South

Location: Sacramento Executive Airport

Current Time: Jun 30, 2015 at 10:47:25 PM

Latest Report: Jun 30, 2015 at 9:53 PM


Visibility: 10 mi

Pressure: 29.77 "Hg

Humidity: 31%

Dew point: 52 °F

Location of SacramentoLocation

Historic Weather in Sacramento — Graph

°F

Sacramento temperature yesterday

Maximum temperature yesterday: 98 °F (at 4:53 PM)
Minimum temperature yesterday: 59 °F (at 4:53 AM)
Average temperature yesterday: 77 °F

Past Weeks' High & Low Weather Summary

 TemperatureHumidityPressure
High107 °F (Jun 30, 4:53 PM)87% (Jun 16, 5:53 AM)30.01 "Hg (Jun 16, 5:53 AM)
Low55 °F (Jun 16, 5:53 AM)13% (Jun 20, 5:53 PM)29.74 "Hg (Jun 30, 5:53 PM)
Average76 °F47%29.87 "Hg
* Reported Jun 15 8:53 PM — Jun 30 8:53 PM, Sacramento, Weather by CustomWeather, © 2015

Note: Actual official high and low records may vary slightly from our data, if they occured in-between our weather recording intervals... More about our weather records

Advertising

Sacramento weather history for previous 24 hours

 ConditionsComfort  
Time TempWeatherWind HumidityBarometerVisibility
8:53 PM
Tue, Jun 30
91 °FSunny.8 mph28%29.75 "Hg10 mi
7:53 PM98 °FSunny.8 mph24%29.75 "Hg10 mi
6:53 PM102 °FSunny.12 mph17%29.74 "Hg10 mi
5:53 PM106 °FSunny.5 mph14%29.74 "Hg10 mi
4:53 PM107 °FSunny.6 mph14%29.74 "Hg10 mi
3:53 PM105 °FSunny.6 mph15%29.76 "Hg10 mi
2:53 PM104 °FSunny.8 mph16%29.78 "Hg10 mi
1:53 PM102 °FSunny.7 mph19%29.80 "Hg10 mi
12:53 PM97 °FSunny.7 mph23%29.83 "Hg10 mi
11:53 AM94 °FSunny.No wind26%29.84 "Hg10 mi
10:53 AM91 °FSunny.No wind31%29.85 "Hg10 mi
9:53 AM85 °FSunny.3 mph40%29.86 "Hg10 mi
8:53 AM79 °FSunny.No wind48%29.87 "Hg10 mi
7:53 AM74 °FSunny.No wind56%29.86 "Hg10 mi
6:53 AM68 °FSunny.No wind68%29.86 "Hg10 mi
5:53 AM64 °FClear.No wind78%29.85 "Hg10 mi
4:53 AM67 °FClear.No wind66%29.84 "Hg10 mi
3:53 AM70 °FClear.5 mph57%29.85 "Hg10 mi
2:53 AM70 °FClear.No wind57%29.85 "Hg10 mi
1:53 AM71 °FClear.3 mph55%29.86 "Hg10 mi
12:53 AM71 °FClear.5 mph53%29.86 "Hg10 mi
11:53 PM
Mon, Jun 29
71 °FClear.No wind55%29.86 "Hg10 mi
10:53 PM73 °FClear.5 mph50%29.85 "Hg10 mi
Weather by CustomWeather, © 2015

See weather overviewHow to use our weather pages